sat.trackr.live / text

‹ back to catalog

STARLINK-36956

NORAD 68009 · 2026-039Z

PAYLOAD ACTIVE UNKNOWN

§ Identity

Operator
Country
US
Launch date
2026-02-27
Launch site
AFETR
Launch vehicle
Mass (kg)
RCS (m²)

Purposes: comms

External: N2YO · Heavens-Above · Gunter

§ Orbital elements

Epoch: 2026-09-19T16:33:08.142048Z

Period
94.27 min
Inclination
43.0047°
Eccentricity
0.0002864
Mean motion
15.27602641 rev/d
Perigee alt
481.0 km
Apogee alt
484.9 km
Semi-major
6,861.1 km
B*
6.3865e-4
RAAN
33.2763°
Arg perigee
270.3514°
Mean anomaly
89.7010°
Rev number
3,137

§ Raw data

STARLINK-369561 68009U 26039Z   26262.68967757  .00017366  00000+0  63865-3 0  99992 68009  43.0047  33.2763 0002864 270.3514  89.7010 15.27602641 31372

JSON: /api/v1/satellites/68009 · /tle

For live sub-satellite position, see the globe view (requires WebGL).

§ Visibility from observer

Set your observer location to see the next 7 days of passes ≥ 10°. The values pass through the URL so the page stays shareable.

No JS? Fill the form by hand. The geolocation button needs JavaScript.